Stations météo

réclame
Mon MeteoGroup
Meierwik, Allemagne (10033): Température de l'air & dewpoint: 13.06.2019 11:00:00 - 19.06.2019 11:00:00 (CEST)Meierwik, Allemagne (10033): Vitesse du vent & gusts: 13.06.2019 11:00:00 - 19.06.2019 11:00:00 (CEST)Meierwik, Allemagne (10033): Direction du vent: 13.06.2019 11:00:00 - 19.06.2019 11:00:00 (CEST)Meierwik, Allemagne (10033): reduced air pressure: 13.06.2019 11:00:00 - 19.06.2019 11:00:00 (CEST)Meierwik, Allemagne (10033): visibility: 13.06.2019 11:00:00 - 19.06.2019 11:00:00 (CEST)
Date & Time tt [°C] td [°C] ff [km/h] ff [knt] fx [km/h] fx [knt] dd ppp [hPa] vv [km]
19.06.2019 11:00:00 21,3 16,7 29 16 - - SE 1008,5 12
19.06.2019 10:00:00 20,0 17,9 14 8 - - ESE 1008,6 10
19.06.2019 09:00:00 16,6 16,0 14 8 - - ESE 1009,3 10
19.06.2019 08:00:00 16,6 16,0 11 6 - - E 1010,3 9
19.06.2019 07:00:00 16,2 15,9 7 4 - - W 1010,8 9
19.06.2019 06:00:00 15,1 14,8 11 6 - - E 1010,5 -
19.06.2019 05:00:00 14,5 14,2 11 6 - - E 1011,0 -
19.06.2019 04:00:00 14,9 14,5 7 4 - - NNE 1011,4 -
19.06.2019 03:00:00 15,2 14,9 11 6 - - E 1011,9 -
19.06.2019 02:00:00 15,9 15,6 7 4 - - ENE 1012,3 -
19.06.2019 01:00:00 16,3 15,8 7 4 - - NNE 1012,6 -
19.06.2019 00:00:00 17,1 16,3 4 2 - - NW 1013,1 -
18.06.2019 23:00:00 18,1 16,7 7 4 - - N 1013,3 -
18.06.2019 22:00:00 19,6 16,4 4 2 - - N 1013,2 -
18.06.2019 21:00:00 21,2 15,9 11 6 - - SE 1013,1 -
18.06.2019 20:00:00 23,2 17,5 4 2 - - N 1013,2 -
18.06.2019 19:00:00 25,2 15,8 11 6 - - W 1012,8 -
18.06.2019 18:00:00 25,1 16,5 18 10 - - W 1013,2 25
18.06.2019 17:00:00 26,3 15,7 14 8 - - W 1013,2 25
18.06.2019 16:00:00 24,6 17,1 22 12 - - W 1013,5 25
18.06.2019 15:00:00 26,6 14,6 18 10 - - SSW 1014,0 25
18.06.2019 14:00:00 26,4 14,6 14 8 - - S 1014,3 25
18.06.2019 13:00:00 25,9 15,6 14 8 - - SSW 1014,8 25
18.06.2019 12:00:00 25,1 15,8 14 8 - - S 1015,1 25
18.06.2019 11:00:00 24,5 16,1 4 2 - - NW 1015,7 25
18.06.2019 10:00:00 22,3 15,3 11 6 - - S 1015,9 25
18.06.2019 09:00:00 20,9 15,6 7 4 - - S 1016,0 20
18.06.2019 08:00:00 19,1 15,1 11 6 - - S 1016,2 20
18.06.2019 07:00:00 17,4 14,4 22 12 - - S 1016,5 20
18.06.2019 06:00:00 17,2 14,1 25 14 - - S 1016,7 20
18.06.2019 05:00:00 16,9 13,9 25 14 - - S 1017,0 20
18.06.2019 04:00:00 16,5 13,2 25 14 - - S 1017,3 20
18.06.2019 03:00:00 16,5 12,9 25 14 - - SSE 1017,6 20
18.06.2019 02:00:00 16,1 12,7 22 12 - - SSE 1018,0 20
18.06.2019 01:00:00 15,3 13,3 14 8 - - SE 1018,5 20
18.06.2019 00:00:00 15,7 13,9 14 8 - - SE 1018,6 20
17.06.2019 23:00:00 16,6 13,8 18 10 - - ESE 1018,8 20
17.06.2019 22:00:00 17,9 13,7 18 10 - - SE 1019,2 20
17.06.2019 21:00:00 19,7 13,8 14 8 - - SE 1019,1 25
17.06.2019 20:00:00 20,4 14,6 14 8 - - SE 1019,6 25
17.06.2019 19:00:00 20,9 14,6 18 10 - - ESE 1019,8 25
17.06.2019 18:00:00 23,4 11,7 7 4 - - NW 1020,0 30
17.06.2019 17:00:00 23,3 12,2 7 4 - - N 1020,4 30
17.06.2019 16:00:00 22,9 12,9 14 8 - - W 1020,8 30
17.06.2019 15:00:00 22,5 12,6 22 12 - - W 1020,9 30
17.06.2019 14:00:00 22,2 12,7 25 14 - - W 1021,1 30
17.06.2019 13:00:00 21,7 12,3 25 14 - - W 1021,3 30
17.06.2019 12:00:00 21,6 14,0 29 16 - - W 1021,3 25
17.06.2019 11:00:00 20,4 12,7 29 16 - - W 1021,3 20
17.06.2019 10:00:00 18,8 13,2 25 14 - - WSW 1021,5 20
17.06.2019 09:00:00 18,0 12,9 18 10 - - SW 1021,3 20
17.06.2019 08:00:00 16,9 12,7 18 10 - - SSW 1020,9 15
17.06.2019 07:00:00 14,9 11,5 22 12 - - SSW 1020,6 15
17.06.2019 06:00:00 14,3 11,3 22 12 - - SSW 1020,8 20
17.06.2019 05:00:00 13,3 11,1 22 12 - - S 1020,7 20
17.06.2019 04:00:00 13,8 11,2 14 8 - - SSW 1020,7 20
17.06.2019 03:00:00 13,8 11,3 14 8 - - SSW 1020,7 25
17.06.2019 02:00:00 13,9 11,5 18 10 - - SW 1020,9 25
17.06.2019 01:00:00 14,0 11,6 14 8 - - WSW 1020,8 25
17.06.2019 00:00:00 14,4 13,0 14 8 - - WSW 1020,8 25
16.06.2019 23:00:00 15,3 12,3 14 8 - - WSW 1020,3 25
16.06.2019 22:00:00 16,3 12,3 11 6 - - SW 1020,1 25
16.06.2019 21:00:00 18,1 13,8 7 4 - - WSW 1020,0 25
16.06.2019 20:00:00 18,1 13,7 7 4 - - SW 1020,0 25
16.06.2019 19:00:00 18,1 13,4 14 8 - - W 1019,9 25
16.06.2019 18:00:00 18,3 12,6 29 16 - - WNW 1019,7 25
16.06.2019 17:00:00 19,5 11,9 18 10 - - W 1019,6 25
16.06.2019 16:00:00 21,1 12,1 14 8 - - W 1019,5 30
16.06.2019 15:00:00 20,3 11,5 22 12 - - W 1019,4 25
16.06.2019 14:00:00 19,9 11,7 18 10 - - W 1019,3 25
16.06.2019 13:00:00 19,2 13,3 22 12 - - W 1019,1 25
16.06.2019 12:00:00 19,5 12,8 25 14 - - W 1018,6 25
16.06.2019 11:00:00 19,1 13,0 25 14 - - W 1018,0 25
16.06.2019 10:00:00 17,5 11,9 25 14 - - W 1018,0 25
16.06.2019 09:00:00 16,9 12,7 25 14 - - W 1017,8 25
16.06.2019 08:00:00 15,7 11,5 14 8 - - WSW 1017,3 25
16.06.2019 07:00:00 13,4 10,2 11 6 - - WSW 1016,9 25
16.06.2019 06:00:00 12,9 10,8 14 8 - - W 1016,4 20
16.06.2019 05:00:00 13,0 11,7 22 12 - - W 1015,9 12
16.06.2019 04:00:00 13,7 12,4 29 16 - - W 1015,7 12
16.06.2019 03:00:00 14,4 13,0 29 16 - - W 1015,5 6
16.06.2019 02:00:00 14,5 13,2 25 14 - - W 1015,1 15
16.06.2019 01:00:00 14,6 13,2 25 14 - - W 1014,9 15
16.06.2019 00:00:00 14,8 13,4 37 20 54 29 WNW 1014,3 9
15.06.2019 23:00:00 15,0 14,1 43 23 - - W 1013,1 4,0
15.06.2019 22:00:00 16,1 15,0 44 24 54 29 W 1011,7 4,0
15.06.2019 21:00:00 17,4 15,8 32 18 - - W 1011,1 15
15.06.2019 20:00:00 17,7 16,5 11 6 - - W 1011,3 7
15.06.2019 19:00:00 17,2 16,5 7 4 - - N 1011,1 4,0
15.06.2019 18:00:00 15,9 15,5 14 8 - - SSE 1010,4 12
15.06.2019 17:00:00 15,1 14,5 21 11 - - SE 1010,3 8
15.06.2019 16:00:00 16,3 15,0 22 12 - - SE 1010,1 4,5
15.06.2019 15:00:00 17,7 14,8 25 14 - - ESE 1009,3 12
15.06.2019 14:00:00 17,3 15,2 11 6 - - S 1010,7 9
15.06.2019 13:00:00 18,2 15,9 18 10 - - ESE 1010,0 9
15.06.2019 12:00:00 18,2 17,1 18 10 - - ENE 1009,6 9
15.06.2019 11:00:00 17,2 16,6 11 6 - - NE 1010,4 9
15.06.2019 10:00:00 16,9 16,1 14 8 - - E 1010,5 9
15.06.2019 09:00:00 16,7 16,0 11 6 - - E 1011,2 9
15.06.2019 08:00:00 16,3 15,5 4 2 - - E 1011,9 15
15.06.2019 07:00:00 16,1 15,2 11 6 - - E 1012,2 15
15.06.2019 06:00:00 15,6 15,2 11 6 - - ENE 1012,6 15
15.06.2019 05:00:00 15,2 14,9 11 6 - - E 1012,9 15
15.06.2019 04:00:00 15,1 14,8 11 6 - - E 1013,6 15
15.06.2019 03:00:00 15,3 14,9 11 6 - - ENE 1014,5 15
15.06.2019 02:00:00 15,7 15,4 11 6 - - E 1015,2 25
15.06.2019 01:00:00 15,8 15,4 11 6 - - E 1015,5 20
15.06.2019 00:00:00 15,2 14,7 14 8 - - ESE 1015,8 20
14.06.2019 23:00:00 15,3 14,7 11 6 - - E 1016,1 20
14.06.2019 22:00:00 16,3 15,2 11 6 - - ENE 1015,9 20
14.06.2019 21:00:00 18,0 15,0 11 6 - - ENE 1015,9 20
14.06.2019 20:00:00 19,8 15,1 14 8 - - E 1016,0 20
14.06.2019 19:00:00 18,8 15,3 11 6 - - NE 1015,7 20
14.06.2019 18:00:00 18,6 15,6 18 10 47 25 NE 1016,1 20
14.06.2019 17:00:00 16,6 15,2 43 23 - - NNW 1015,7 20
14.06.2019 16:00:00 22,7 15,0 14 8 - - E 1014,8 25
14.06.2019 15:00:00 22,9 15,2 14 8 - - ESE 1015,7 25
14.06.2019 14:00:00 22,4 13,8 11 6 - - E 1016,1 25
14.06.2019 13:00:00 22,8 12,1 18 10 - - SSE 1016,2 25
14.06.2019 12:00:00 21,6 12,8 18 10 - - SSE 1016,6 15
14.06.2019 11:00:00 20,7 11,8 14 8 - - SSW 1016,6 15
14.06.2019 10:00:00 19,4 11,7 14 8 - - S 1016,6 15
14.06.2019 09:00:00 18,5 11,6 11 6 - - S 1016,4 15
14.06.2019 08:00:00 15,0 12,0 18 10 - - S 1016,1 15
14.06.2019 07:00:00 13,6 11,9 14 8 - - S 1015,5 15
14.06.2019 06:00:00 12,4 11,5 18 10 - - S 1015,4 15
14.06.2019 05:00:00 12,3 11,2 18 10 - - S 1015,1 20
14.06.2019 04:00:00 13,3 11,8 18 10 - - S 1015,1 25
14.06.2019 03:00:00 13,8 11,2 22 12 - - S 1014,9 25
14.06.2019 02:00:00 13,1 11,8 14 8 - - S 1014,2 25
14.06.2019 01:00:00 13,9 12,1 18 10 - - S 1014,0 25
14.06.2019 00:00:00 15,3 12,7 14 8 - - S 1014,2 30
13.06.2019 23:00:00 16,2 11,3 18 10 - - SE 1013,5 30
13.06.2019 22:00:00 17,0 12,0 14 8 - - SE 1013,0 30
13.06.2019 21:00:00 18,5 12,0 4 2 - - W 1012,7 30
13.06.2019 20:00:00 20,7 9,9 7 4 - - S 1012,4 30
13.06.2019 19:00:00 21,0 9,1 11 6 - - SW 1012,2 30
13.06.2019 18:00:00 21,3 10,5 14 8 - - W 1012,4 30
13.06.2019 17:00:00 19,4 11,0 11 6 - - SSW 1012,3 30
13.06.2019 16:00:00 21,4 11,2 22 12 - - WSW 1012,2 30
13.06.2019 15:00:00 21,3 10,4 22 12 - - SSW 1011,8 20
13.06.2019 14:00:00 21,1 10,4 25 14 - - SW 1011,7 20
13.06.2019 13:00:00 20,9 9,9 25 14 - - SSW 1011,4 20
13.06.2019 12:00:00 18,8 10,8 18 10 - - SSW 1011,2 20
13.06.2019 11:00:00 19,3 11,0 18 10 - - SSW 1011,0 12

tt = Température de l'air
td = dewpoint
ff = Vitesse du vent
fx = gusts
dd = Direction du vent
ppp = reduced air pressure
vv = visibility

stations d'obs. à proximité